FW2284 Weather Reports


time (UTC)temp
C
wind
direction
speed
KPH
gust
KPH
rain 1hr
cm
rain 24hr
cm
rain mn
cm
humidity
%
barometer
mb
20260504234545 25 221 3.2 12.9 0.00 0.25 0.25 49 1001.8
20260504233102 26 242 3.2 11.3 0.00 0.25 0.25 48 1001.9
20260504231542 26 209 4.8 11.3 0.00 0.25 0.25 49 1001.9
20260504230042 27 203 6.4 12.9 0.00 0.25 0.25 45 1002.0
20260504224543 27 165 11.3 20.9 0.00 0.25 0.25 42 1002.1
20260504223040 27 214 8.0 30.6 0.00 0.25 0.25 42 1002.1
20260504221538 27 190 12.9 25.7 0.00 0.25 0.25 44 1002.2
20260504220036 27 214 11.3 24.1 0.00 0.25 0.25 43 1002.1
20260504214534 26 186 4.8 20.9 0.00 0.25 0.25 47 1002.2
20260504213034 26 270 11.3 25.7 0.00 0.25 0.25 48 1002.2
20260504211530 26 139 8.0 19.3 0.00 0.25 0.25 48 1002.3
20260504210028 26 206 12.9 33.8 0.00 0.25 0.25 46 1002.3
20260504204526 26 224 11.3 24.1 0.00 0.25 0.25 49 1002.3
20260504203022 25 249 12.9 27.4 0.00 0.25 0.25 52 1002.5
20260504201518 25 156 9.7 22.5 0.00 0.25 0.25 59 1002.6
20260504200017 25 147 9.7 14.5 0.00 0.25 0.25 59 1002.9
20260504194513 23 205 8.0 17.7 0.00 0.25 0.25 65 1003.2
20260504193009 22 200 3.2 16.1 0.00 0.25 0.25 65 1003.5
20260504191507 21 159 8.0 14.5 0.00 0.25 0.25 68 1003.7
20260504190002 20 188 6.4 14.5 0.00 0.25 0.25 77 1004.0
20260504184600 17 179 9.7 16.1 0.00 0.25 0.25 78 1003.2
20260504183057 18 136 6.4 11.3 0.00 0.25 0.25 75 1004.1
20260504181559 18 226 3.2 9.7 0.00 0.25 0.25 73 1004.9
20260504180055 18 162 6.4 11.3 0.00 0.25 0.25 74 1004.5
20260504174554 18 139 4.8 9.7 0.00 0.25 0.25 76 1004.6
20260504173052 17 167 4.8 11.3 0.00 0.25 0.25 77 1004.8
20260504171553 17 172 3.2 14.5 0.00 0.25 0.25 81 1005.1
20260504081516 12 204 0.0 1.6 0.00 0.00 0.00 77 1008.1
20260504044538 18 205 4.8 12.9 0.00 0.00 0.00 58 1008.2
20260504043046 18 215 4.8 9.7 0.00 0.00 0.00 57 1008.5
20260504041538 18 225 1.6 8.0 0.00 0.00 0.00 56 1008.9
20260504040035 18 236 1.6 6.4 0.00 0.00 0.00 55 1009.1
20260504034535 20 221 4.8 14.5 0.00 0.00 0.00 53 1009.1
20260504033037 20 219 6.4 17.7 0.00 0.00 0.00 55 1008.9
20260504031535 19 195 3.2 8.0 0.00 0.00 0.00 57 1009.6
20260504030033 18 231 1.6 6.4 0.00 0.00 0.00 58 1009.7
20260504024535 18 140 1.6 4.8 0.00 0.00 0.00 57 1009.4
20260504023031 19 189 1.6 6.4 0.00 0.00 0.00 55 1009.4
20260504021533 20 205 1.6 6.4 0.00 0.00 0.00 54 1009.3
20260504020032 19 226 3.2 4.8 0.00 0.00 0.00 54 1009.2
20260504014537 20 335 0.0 3.2 0.00 0.00 0.00 51 1009.3
20260504013029 20 162 0.0 4.8 0.00 0.00 0.00 51 1009.0
20260504011529 21 186 1.6 3.2 0.00 0.00 0.00 49 1008.9
20260504010029 21 204 0.0 3.2 0.00 0.00 0.00 46 1008.7
20260504004528 22 209 1.6 6.4 0.00 0.00 0.00 43 1008.7
20260504003034 23 236 0.0 4.8 0.00 0.00 0.00 43 1008.7
20260504001531 23 243 0.0 6.4 0.00 0.00 0.00 40 1008.8
20260504000025 23 257 4.8 14.5 0.00 0.00 0.00 38 1008.7